Flag for U.S.A. Weather past 2 weeks in Waterbury, Connecticut, U.S.A.

Now
72 °F

Partly sunny.


Feels Like: 75 °F
Forecast: 64 / 79 °F
Wind: 13 mph from North

Location: Oxford

Current Time: Jul 24, 2014 at 11:24:02 AM

Latest Report: Jul 24, 2014 at 10:45 AM


Visibility: 10 mi

Pressure: 29.90 "Hg

Humidity: 69%

Dew point: 61 °F

Location of WaterburyLocation

Historic Weather in Waterbury — Graph

°F

Waterbury temperature yesterday

Maximum temperature yesterday: 84 °F (at 12:45 PM)
Minimum temperature yesterday: 68 °F (at 11:15 PM)
Average temperature yesterday: 76 °F

Past Weeks' High & Low Weather Summary

 TemperatureHumidityPressure
High84 °F (Jul 9, 3:45 PM)100% (Jul 15, 12:45 PM)30.30 "Hg (Jul 15, 12:45 PM)
Low55 °F (Jul 18, 4:55 AM)36% (Jul 13, 11:45 AM)29.78 "Hg (Jul 15, 5:45 PM)
Average68 °F75%30.07 "Hg
* Reported Jul 9 9:45 AM — Jul 24 9:50 AM, Waterbury, Weather by CustomWeather, © 2014

Note: Actual official high and low records may vary slightly from our data, if they occured in-between our weather recording intervals... More about our weather records

Advertising

Waterbury weather history for previous 24 hours

 ConditionsComfort  
Time TempWeatherWind HumidityBarometerVisibility
9:50 AM
Jul 24
70 °FBroken clouds.13 mph73%29.89 "Hg10 mi
8:45 AM70 °FBroken clouds.14 mph73%29.88 "Hg10 mi
7:45 AM68 °FPassing clouds.10 mph78%29.87 "Hg10 mi
6:45 AM66 °FPartly sunny.10 mph83%29.86 "Hg10 mi
6:15 AM66 °FPartly cloudy.12 mph83%29.86 "Hg10 mi
5:55 AM66 °FPassing clouds.10 mph83%29.85 "Hg10 mi
5:35 AM68 °FMostly cloudy.10 mph83%29.85 "Hg10 mi
5:15 AM68 °FOvercast.7 mph83%29.85 "Hg10 mi
4:55 AM66 °FMostly cloudy.6 mph88%29.84 "Hg10 mi
4:35 AM68 °FMostly cloudy.6 mph83%29.85 "Hg10 mi
4:15 AM66 °FPassing clouds.7 mph88%29.84 "Hg10 mi
3:55 AM68 °FPassing clouds.6 mph83%29.84 "Hg10 mi
3:35 AM68 °FOvercast.8 mph83%29.84 "Hg10 mi
3:15 AM68 °FPassing clouds.3 mph83%29.84 "Hg10 mi
2:55 AM68 °FPassing clouds.3 mph83%29.83 "Hg10 mi
2:35 AM68 °FPassing clouds.No wind88%29.83 "Hg9 mi
1:35 AM70 °FPassing clouds.5 mph83%29.83 "Hg9 mi
1:15 AM70 °FOvercast.5 mph83%29.84 "Hg6 mi
12:55 AM68 °FPassing clouds.5 mph88%29.83 "Hg5 mi
12:35 AM68 °FPassing clouds.No wind88%29.85 "Hg2 mi
12:15 AM68 °FPassing clouds.5 mph88%29.85 "Hg5 mi
11:55 PM
Jul 23
70 °FPassing clouds.No wind83%29.85 "Hg3 mi
11:35 PM68 °FPassing clouds.3 mph88%29.85 "Hg3 mi
11:15 PM68 °FPassing clouds.No wind88%29.85 "Hg4 mi
10:55 PM70 °FPassing clouds.3 mph83%29.88 "Hg5 mi
10:35 PM70 °FThunderstorms. Partly cloudy.3 mph83%29.88 "Hg8 mi
10:15 PM70 °FThunderstorms. Mostly cloudy.3 mph78%29.88 "Hg3 mi
9:55 PM72 °FThunderstorms. Overcast.12 mph78%29.91 "Hg8 mi
9:35 PM75 °FThundershowers. Partly cloudy.14 mph74%29.89 "Hg10 mi
9:15 PM75 °FSunny.3 mph78%29.86 "Hg10 mi
8:55 PM75 °FScattered clouds.7 mph78%29.83 "Hg10 mi
7:55 PM77 °FPassing clouds.12 mph79%29.83 "Hg10 mi
6:55 PM81 °FPassing clouds.12 mph74%29.83 "Hg10 mi
5:55 PM82 °FScattered clouds.12 mph70%29.83 "Hg10 mi
4:55 PM84 °FScattered clouds.12 mph66%29.85 "Hg10 mi
3:45 PM84 °FScattered clouds.9 mph66%29.87 "Hg10 mi
2:50 PM84 °FScattered clouds.10 mph66%29.89 "Hg10 mi
1:50 PM84 °FPartly sunny.8 mph66%29.91 "Hg10 mi
12:45 PM84 °FPartly sunny.8 mph66%29.93 "Hg10 mi
11:45 AM81 °FPassing clouds.7 mph70%29.95 "Hg10 mi
Weather by CustomWeather, © 2014

See weather overviewHow to use our weather pages